Weather History for KAXN - October, 2013

Change the Weather History Date:

Thursday, October 31, 2013

  Actual Average Record
Temperature  
Mean Temperature 37 °F -  
Max Temperature 39 °F 49 °F 73 °F (1950)
Min Temperature 35 °F 31 °F 9 °F (1951)
Degree Days  
Heating Degree Days 28    
Moisture  
Dew Point 37 °F    
Average Humidity 99    
Maximum Humidity 100    
Minimum Humidity 93    
Precipitation  
Precipitation 0.00 in - - ()
Sea Level Pressure  
Sea Level Pressure 29.57 in    
Wind  
Wind Speed 7 mph (WNW)    
Max Wind Speed 12 mph    
Max Gust Speed -    
Visibility 3 miles    
Events Fog    
Averages and records for this station are not official NWS values.
T = Trace of Precipitation, MM = Missing Value Source: NWS Daily Summary

Daily Weather History Graph

Daily Weather History Graph

Search for Another Location

Airport or City:

Trip Planner

Search our weather history database for the weather conditions in past years. The results will help you decide how hot, cold, wet, or windy it might be!

Date:

Astronomy

Oct. 31, 2013 Rise Set
Actual Time 8:00 AM CDT 6:08 PM CDT
Civil Twilight 7:29 AM CDT 6:39 PM CDT
Nautical Twilight 6:54 AM CDT 7:15 PM CDT
Astronomical Twilight 6:19 AM CDT 7:49 PM CDT
Moon 4:42 AM CDT (10/31) 4:34 PM CDT (10/31)
Length of Visible Light 11h 10m
Length of Day
10h 08m
Waning Crescent, 10% of the Moon is Illuminated
Oct 31
Waning Crescent
Nov 3
New
Nov 9
First Quarter
Nov 17
Full
Nov 25
Last Quarter

Hourly Weather History & Observations

Time (CDT) Temp. Windchill Dew Point Humidity Pressure Visibility Wind Dir Wind Speed Gust Speed Precip Events Conditions
12:12 AM 37.4 °F 32.8 °F 37.4 °F 100% 29.68 in 1.2 mi WNW 5.8 mph - N/A   Overcast
12:33 AM 37.4 °F 32.8 °F 37.4 °F 100% 29.68 in 0.8 mi WNW 5.8 mph - N/A   Mist
12:43 AM 37.4 °F 31.4 °F 37.4 °F 100% 29.68 in 1.2 mi WNW 8.1 mph - N/A   Overcast
12:53 AM 37.9 °F 33.5 °F 37.9 °F 100% 29.72 in 1.0 mi WNW 5.8 mph - N/A   Mist
1:39 AM 37.4 °F 32.8 °F 37.4 °F 100% 29.66 in 0.8 mi WNW 5.8 mph - N/A   Mist
1:53 AM 37.9 °F 32.1 °F 37.9 °F 100% 29.70 in 0.8 mi WNW 8.1 mph - N/A   Mist
2:10 AM 37.4 °F 31.4 °F 37.4 °F 100% 29.65 in 0.5 mi West 8.1 mph - N/A Fog Fog
2:36 AM 37.4 °F 31.4 °F 37.4 °F 100% 29.64 in 0.8 mi WNW 8.1 mph - N/A   Mist
2:53 AM 37.0 °F 31.0 °F 37.0 °F 100% 29.67 in 1.0 mi WNW 8.1 mph - N/A   Mist
3:00 AM 37.4 °F 32.1 °F 37.4 °F 100% 29.62 in 2.0 mi WNW 6.9 mph - N/A   Overcast
3:08 AM 37.4 °F 32.1 °F 37.4 °F 100% 29.62 in 4.0 mi West 6.9 mph - N/A   Overcast
3:24 AM 37.4 °F 32.8 °F 37.4 °F 100% 29.61 in 1.8 mi WNW 5.8 mph - N/A   Overcast
3:36 AM 37.4 °F 32.1 °F 37.4 °F 100% 29.61 in 2.5 mi WNW 6.9 mph - N/A   Overcast
3:53 AM 37.0 °F 31.0 °F 37.0 °F 100% 29.65 in 1.8 mi WNW 8.1 mph - N/A   Overcast
4:04 AM 37.4 °F 32.8 °F 37.4 °F 100% 29.60 in 0.8 mi West 5.8 mph - N/A   Overcast
4:17 AM 37.4 °F 31.4 °F 37.4 °F 100% 29.60 in 0.5 mi West 8.1 mph - N/A Fog Fog
4:41 AM 37.4 °F 32.1 °F 37.4 °F 100% 29.60 in 0.8 mi WNW 6.9 mph - N/A   Mist
4:49 AM 37.4 °F 30.8 °F 37.4 °F 100% 29.59 in 1.0 mi West 9.2 mph - N/A   Mist
4:53 AM 36.0 °F 28.0 °F 36.0 °F 100% 29.63 in 1.5 mi WNW 11.5 mph - N/A   Overcast
5:11 AM 35.6 °F 28.6 °F 35.6 °F 100% 29.59 in 1.0 mi WNW 9.2 mph - N/A   Mist
5:39 AM 35.6 °F 28.6 °F 35.6 °F 100% 29.58 in 2.0 mi WNW 9.2 mph - N/A   Overcast
5:53 AM 35.1 °F 26.9 °F 35.1 °F 100% 29.62 in 8.0 mi West 11.5 mph - N/A   Overcast
6:51 AM 35.6 °F 29.9 °F 35.6 °F 100% 29.56 in 1.8 mi NW 6.9 mph - N/A   Overcast
6:53 AM 35.1 °F 29.3 °F 35.1 °F 100% 29.60 in 1.5 mi WNW 6.9 mph - N/A   Overcast
7:00 AM 35.6 °F 30.7 °F 35.6 °F 100% 29.56 in 1.0 mi WNW 5.8 mph - N/A   Overcast
7:15 AM 35.6 °F 31.7 °F 35.6 °F 100% 29.56 in 0.8 mi WNW 4.6 mph - N/A   Mist
7:36 AM 35.6 °F 32.8 °F 35.6 °F 100% 29.56 in 0.5 mi West 3.5 mph - N/A Fog Fog
7:53 AM 35.1 °F - 35.1 °F 100% 29.60 in 0.5 mi Calm Calm - N/A Fog Fog
8:12 AM 35.6 °F 32.8 °F 35.6 °F 100% 29.56 in 1.0 mi West 3.5 mph - N/A   Mist
8:34 AM 35.6 °F 30.7 °F 35.6 °F 100% 29.55 in 0.8 mi West 5.8 mph - N/A   Mist
8:42 AM 35.6 °F 29.2 °F 35.6 °F 100% 29.56 in 1.0 mi WSW 8.1 mph - N/A   Mist
8:53 AM 35.1 °F 29.3 °F 35.1 °F 100% 29.60 in 1.8 mi West 6.9 mph - N/A   Overcast
8:56 AM 35.6 °F 29.9 °F 35.6 °F 100% 29.57 in 3.0 mi WSW 6.9 mph - N/A   Overcast
9:05 AM 35.6 °F 29.2 °F 35.6 °F 100% 29.56 in 1.5 mi WSW 8.1 mph - N/A   Overcast
9:09 AM 35.6 °F 29.2 °F 35.6 °F 100% 29.56 in 0.8 mi West 8.1 mph - N/A   Overcast
9:18 AM 35.6 °F 29.9 °F 35.6 °F 100% 29.56 in 0.5 mi West 6.9 mph - N/A Fog Fog
9:29 AM 35.6 °F 29.2 °F 35.6 °F 100% 29.55 in 1.0 mi West 8.1 mph - N/A   Overcast
9:40 AM 35.6 °F 29.2 °F 35.6 °F 100% 29.55 in 2.0 mi West 8.1 mph - N/A   Overcast
9:49 AM 35.6 °F 29.2 °F 35.6 °F 100% 29.54 in 5.0 mi West 8.1 mph - N/A   Overcast
9:53 AM 35.1 °F 29.3 °F 35.1 °F 100% 29.58 in 5.0 mi West 6.9 mph - N/A   Overcast
10:53 AM 35.1 °F 27.9 °F 35.1 °F 100% 29.57 in 7.0 mi West 9.2 mph - N/A   Overcast
11:53 AM 36.0 °F 30.3 °F 35.1 °F 97% 29.55 in 8.0 mi WNW 6.9 mph - N/A   Overcast
12:04 PM 35.6 °F 28.6 °F 35.6 °F 100% 29.50 in 7.0 mi WNW 9.2 mph - N/A   Overcast
12:43 PM 35.6 °F 29.2 °F 35.6 °F 100% 29.50 in 5.0 mi West 8.1 mph - N/A   Overcast
12:53 PM 37.0 °F 32.4 °F 36.0 °F 96% 29.53 in 7.0 mi WNW 5.8 mph - N/A   Overcast
1:42 PM 37.4 °F 31.4 °F 37.4 °F 100% 29.46 in 9.0 mi West 8.1 mph - N/A   Overcast
1:53 PM 37.9 °F 32.1 °F 37.0 °F 97% 29.50 in 10.0 mi WNW 8.1 mph - N/A   Overcast
2:53 PM 37.9 °F 32.1 °F 37.0 °F 97% 29.47 in 10.0 mi WNW 8.1 mph - N/A   Overcast
3:53 PM 37.9 °F 32.1 °F 37.0 °F 97% 29.47 in 10.0 mi NW 8.1 mph - N/A   Overcast
4:53 PM 37.9 °F 31.5 °F 37.0 °F 97% 29.47 in 8.0 mi WNW 9.2 mph - N/A   Overcast
5:53 PM 37.9 °F 32.1 °F 37.0 °F 97% 29.47 in 4.0 mi WNW 8.1 mph - N/A   Overcast
6:53 PM 37.9 °F 31.5 °F 37.0 °F 97% 29.48 in 6.0 mi WNW 9.2 mph - N/A   Overcast
7:53 PM 39.0 °F 32.8 °F 37.9 °F 96% 29.48 in 5.0 mi WNW 9.2 mph - N/A   Overcast
8:53 PM 39.0 °F 32.3 °F 37.9 °F 96% 29.48 in 6.0 mi NW 10.4 mph - N/A   Overcast
9:53 PM 39.0 °F 33.4 °F 37.9 °F 96% 29.49 in 5.0 mi NW 8.1 mph - N/A   Overcast
10:53 PM 39.0 °F 34.0 °F 37.9 °F 96% 29.50 in 5.0 mi WNW 6.9 mph - N/A   Overcast
11:17 PM 39.2 °F 33.6 °F 37.4 °F 93% 29.46 in 6.0 mi WNW 8.1 mph - N/A   Overcast
11:53 PM 37.9 °F 34.4 °F 37.0 °F 97% 29.50 in 6.0 mi WNW 4.6 mph - N/A   Mostly Cloudy